When you browse on this site, cookies collect data to enhance your experience and personalize the content and advertising you see.
Visit our Privacy Policy to learn more. By continuing to use the site, you agree to this use of cookies and data.
EN

Hourly Weather Petrushino

Today, 3 August, Monday

Time Temperature Precipitation Wind Pressure Humidity
00:00 +12°C° 0 mm 1 mps 746 mmHg 84%
01:00 +12°C° 0 mm 1 mps 746 mmHg 83%
02:00 +12°C° 0 mm 2 mps 746 mmHg 85%
03:00 +12°C° 0 mm 2 mps 746 mmHg 85%
04:00 +10°C° 0 mm 2 mps 746 mmHg 86%
05:00 +10°C° 0 mm 2 mps 746 mmHg 86%
06:00 +13°C° 0 mm 2 mps 746 mmHg 81%
07:00 +15°C° 0 mm 2 mps 746 mmHg 75%
08:00 +17°C° 0 mm 3 mps 746 mmHg 71%
09:00 +19°C° 0 mm 3 mps 746 mmHg 66%
10:00 +20°C° 0 mm 3 mps 746 mmHg 62%
11:00 +22°C° 0 mm 4 mps 746 mmHg 58%
12:00 +23°C° 0 mm 4 mps 746 mmHg 56%
13:00 +24°C° 0 mm 3 mps 746 mmHg 54%
14:00 +25°C° 0 mm 3 mps 745 mmHg 52%
15:00 +25°C° 0 mm 3 mps 745 mmHg 56%
16:00 +25°C° 0 mm 3 mps 745 mmHg 60%
17:00 +24°C° 0 mm 2 mps 745 mmHg 63%
18:00 +23°C° 0 mm 2 mps 745 mmHg 71%
19:00 +20°C° 0 mm 2 mps 745 mmHg 78%
20:00 +18°C° 0 mm 2 mps 745 mmHg 86%
21:00 +17°C° 0 mm 2 mps 746 mmHg 89%
22:00 +17°C° 0 mm 2 mps 746 mmHg 91%
23:00 +16°C° 0 mm 2 mps 746 mmHg 94%

Tomorrow, 4 August, Tuesday

Time Temperature Precipitation Wind Pressure Humidity
00:00 +16°C° 0 mm 2 mps 746 mmHg 94%
01:00 +16°C° 0 mm 2 mps 746 mmHg 95%
02:00 +15°C° 0 mm 2 mps 746 mmHg 95%
03:00 +15°C° 0 mm 2 mps 746 mmHg 94%
04:00 +15°C° 0 mm 2 mps 746 mmHg 94%
05:00 +15°C° 0 mm 2 mps 746 mmHg 93%
06:00 +16°C° 0 mm 3 mps 746 mmHg 87%
07:00 +18°C° 0 mm 3 mps 747 mmHg 81%
08:00 +19°C° 0 mm 3 mps 747 mmHg 75%
09:00 +21°C° 0 mm 4 mps 747 mmHg 69%
10:00 +22°C° 0 mm 5 mps 747 mmHg 62%
11:00 +25°C° 0 mm 5 mps 747 mmHg 56%
12:00 +25°C° 0 mm 5 mps 746 mmHg 55%
13:00 +26°C° 0 mm 5 mps 746 mmHg 54%
14:00 +26°C° 0 mm 5 mps 746 mmHg 54%
15:00 +26°C° 0 mm 5 mps 746 mmHg 56%
16:00 +26°C° 0 mm 5 mps 746 mmHg 59%
17:00 +25°C° 0 mm 5 mps 746 mmHg 62%
18:00 +23°C° 0 mm 5 mps 746 mmHg 66%
19:00 +22°C° 0 mm 4 mps 746 mmHg 70%
20:00 +21°C° 0 mm 4 mps 746 mmHg 74%
21:00 +21°C° 0 mm 4 mps 746 mmHg 72%
22:00 +21°C° 0 mm 4 mps 746 mmHg 70%
23:00 +21°C° 0 mm 5 mps 746 mmHg 68%

Day after tomorrow, 5 August, Wednesday

Time Temperature Precipitation Wind Pressure Humidity
00:00 +21°C° 0 mm 4 mps 746 mmHg 69%
01:00 +20°C° 0 mm 4 mps 746 mmHg 70%
02:00 +20°C° 0 mm 4 mps 746 mmHg 71%
03:00 +20°C° 0 mm 4 mps 746 mmHg 73%
04:00 +19°C° 0 mm 4 mps 746 mmHg 76%
05:00 +19°C° 0 mm 4 mps 747 mmHg 78%
06:00 +19°C° 0 mm 4 mps 747 mmHg 78%
07:00 +20°C° 0 mm 4 mps 747 mmHg 78%
08:00 +20°C° 0 mm 4 mps 748 mmHg 78%
09:00 +20°C° 0.3 mm 3 mps 748 mmHg 81%
10:00 +20°C° 0.3 mm 3 mps 749 mmHg 83%
11:00 +21°C° 0.3 mm 3 mps 749 mmHg 85%
12:00 +21°C° 0.4 mm 2 mps 749 mmHg 87%
13:00 +20°C° 0.4 mm 2 mps 749 mmHg 88%
14:00 +20°C° 0.4 mm 2 mps 750 mmHg 90%
15:00 +22°C° 0.1 mm 1 mps 750 mmHg 88%
16:00 +22°C° 0.1 mm 1 mps 750 mmHg 87%
17:00 +23°C° 0.1 mm 1 mps 750 mmHg 85%
18:00 +22°C° 0.1 mm 1 mps 750 mmHg 88%
19:00 +21°C° 0.1 mm 1 mps 751 mmHg 90%
20:00 +20°C° 0.1 mm 1 mps 751 mmHg 93%
21:00 +19°C° 0.1 mm 1 mps 751 mmHg 93%
22:00 +19°C° 0.1 mm 1 mps 751 mmHg 93%
23:00 +18°C° 0.1 mm 1 mps 752 mmHg 93%

6 August, Thursday

Time Temperature Precipitation Wind Pressure Humidity
00:00 +18°C° 0 mm 1 mps 752 mmHg 93%
01:00 +16°C° 0 mm 1 mps 752 mmHg 93%
02:00 +16°C° 0 mm 1 mps 752 mmHg 93%
03:00 +15°C° 0 mm 1 mps 752 mmHg 93%
04:00 +15°C° 0 mm 1 mps 753 mmHg 93%
05:00 +14°C° 0 mm 1 mps 753 mmHg 93%
06:00 +16°C° 0 mm 2 mps 753 mmHg 87%
07:00 +17°C° 0 mm 2 mps 753 mmHg 81%
08:00 +19°C° 0 mm 2 mps 754 mmHg 75%
09:00 +20°C° 0 mm 2 mps 754 mmHg 67%
10:00 +23°C° 0 mm 2 mps 754 mmHg 60%
11:00 +25°C° 0 mm 2 mps 754 mmHg 52%
12:00 +25°C° 0 mm 2 mps 754 mmHg 50%
13:00 +25°C° 0 mm 2 mps 754 mmHg 48%
14:00 +26°C° 0 mm 2 mps 754 mmHg 46%
15:00 +25°C° 0 mm 2 mps 754 mmHg 49%
16:00 +25°C° 0 mm 2 mps 754 mmHg 52%
17:00 +25°C° 0 mm 2 mps 754 mmHg 54%
18:00 +23°C° 0 mm 2 mps 755 mmHg 61%
19:00 +20°C° 0 mm 2 mps 755 mmHg 68%
20:00 +18°C° 0 mm 2 mps 755 mmHg 75%
21:00 +17°C° 0 mm 2 mps 755 mmHg 77%
22:00 +16°C° 0 mm 1 mps 756 mmHg 78%
23:00 +15°C° 0 mm 1 mps 756 mmHg 80%

7 August, Friday

Time Temperature Precipitation Wind Pressure Humidity
00:00 +15°C° 0 mm 1 mps 756 mmHg 82%
01:00 +14°C° 0 mm 1 mps 756 mmHg 83%
02:00 +14°C° 0 mm 1 mps 756 mmHg 85%
03:00 +14°C° 0 mm 1 mps 756 mmHg 87%
04:00 +13°C° 0 mm 1 mps 757 mmHg 89%
05:00 +13°C° 0 mm 1 mps 757 mmHg 91%
06:00 +15°C° 0 mm 1 mps 757 mmHg 85%
07:00 +18°C° 0 mm 1 mps 757 mmHg 78%
08:00 +19°C° 0 mm 2 mps 757 mmHg 72%
09:00 +20°C° 0 mm 2 mps 757 mmHg 67%
10:00 +23°C° 0 mm 2 mps 757 mmHg 61%
11:00 +24°C° 0 mm 2 mps 757 mmHg 56%
12:00 +25°C° 0 mm 2 mps 757 mmHg 55%
13:00 +25°C° 0 mm 2 mps 757 mmHg 53%
14:00 +26°C° 0 mm 2 mps 756 mmHg 52%
15:00 +25°C° 0 mm 2 mps 756 mmHg 55%
16:00 +25°C° 0 mm 2 mps 756 mmHg 57%
17:00 +25°C° 0 mm 2 mps 756 mmHg 60%
18:00 +23°C° 0 mm 2 mps 756 mmHg 68%
19:00 +20°C° 0 mm 2 mps 756 mmHg 76%
20:00 +18°C° 0 mm 2 mps 756 mmHg 84%
21:00 +18°C° 0 mm 1 mps 756 mmHg 86%
22:00 +18°C° 0 mm 1 mps 756 mmHg 88%
23:00 +16°C° 0 mm 1 mps 756 mmHg 91%

8 August, Saturday

Time Temperature Precipitation Wind Pressure Humidity
00:00 +15°C° 0 mm 1 mps 756 mmHg 91%
01:00 +15°C° 0 mm 1 mps 756 mmHg 92%
02:00 +14°C° 0 mm 1 mps 756 mmHg 92%
03:00 +14°C° 0 mm 1 mps 755 mmHg 92%
04:00 +14°C° 0 mm 1 mps 755 mmHg 92%
05:00 +14°C° 0 mm 1 mps 755 mmHg 91%
06:00 +16°C° 0 mm 1 mps 755 mmHg 84%
07:00 +19°C° 0 mm 1 mps 755 mmHg 76%
08:00 +21°C° 0 mm 1 mps 755 mmHg 69%
09:00 +22°C° 0 mm 1 mps 755 mmHg 64%
10:00 +23°C° 0 mm 2 mps 755 mmHg 59%
11:00 +25°C° 0 mm 2 mps 755 mmHg 54%
12:00 +25°C° 0 mm 2 mps 755 mmHg 52%
13:00 +25°C° 0 mm 2 mps 754 mmHg 50%
14:00 +26°C° 0 mm 2 mps 754 mmHg 48%
15:00 +26°C° 0 mm 2 mps 754 mmHg 51%
16:00 +25°C° 0 mm 2 mps 753 mmHg 55%
17:00 +25°C° 0 mm 2 mps 753 mmHg 58%
18:00 +23°C° 0 mm 1 mps 753 mmHg 62%
19:00 +21°C° 0 mm 1 mps 753 mmHg 66%
20:00 +20°C° 0 mm 1 mps 753 mmHg 71%
21:00 +19°C° 0 mm 1 mps 753 mmHg 72%
22:00 +18°C° 0 mm 1 mps 753 mmHg 74%
23:00 +18°C° 0 mm 1 mps 753 mmHg 76%
Show more